STARLINK-3755, 52307

Orbit data source: Space-Track

STARLINK-3755, 52307 is a payload satellite owned by SpaceX/Seattle (US) in LEO that was launched on Thu, 21 Apr 2022 UTC via an FALCON 9 launch vehicle from the Air Force Eastern Test Range (AFETR). Payload-class satellites include a variety of spacecraft equipped with specific instruments for various scientific and technological missions. These include communications satellites like Starlink; space stations such as the ISS; scientific satellites like the Hubble; Earth observation satellites from companies like Planet Labs, Umbra, and HawkEye 360; GPS; miniature CubeSats for education and research; and military/defense satellites.

Loading next visibility...
Identifier
52307, 2022-041AY
Orbit
LEO
Country
Flag of USUS
Related business
Manufacturer
SpaceX/Seattle
Mission
Operational Commercial Communications
Bus & Motor
STARLINK, Unknown motor
Mass
297 kg wet, ~275 kg dry
Launch date (UTC)
2022-04-21 (4 years ago)
Launch vehicle
FALCON 9
Launch site
Air Force Eastern Test Range (AFETR)
Object type
Payload
Rocket body
Debris
Shape & HBR
Box + 1 Pan, 10.1 m
Radar Cross Section
11.087 m², Large (>1 m²)

Expand to show TLE details & history
Last TLE update: 19 hours ago

TLE from 19 hours ago
0 STARLINK-3755
1 52307U 22041AY  26175.16800356  .00000309  00000-0  37519-4 0  9997
2 52307  53.1599 340.9817 0001218  91.0354 269.0777 15.08830036230587
Epoch: 2026-06-24T04:01Z
TLE epoch observation values (Epoch: 2026-06-24T04:01:55.507Z)
Latitude
-0.00003°
Longitude
8.17131°
Altitude
540.679 km
Speed
7.593 km/s
True Right ascension
22h 43m 55s
True Declination
0° 00' 00"
Sunlit
Object was in daylight at epoch
Visualization orbit readout
Latitude
Unknown
Longitude
Unknown
Altitude
Unknown
Speed
Unknown
Apparent Right ascension
Unknown
Apparent Declination
Unknown
Sunlit
N/A
Visualization observer readout
Local Sidereal Time
10:32:21
Azimuth
Unknown
Elevation
Unknown
Doppler factor
Unknown
Orbital elements
Apogee altitude
540.871 km
Perigee altitude
539.185 km
Semi-major axis
6,918.165 km
Eccentricity
0.00012
Inclination
53.1599°
RAAN
340.9817°
Arg. of periapsis
91.0354°
True anomaly
269.06374°
Mean anomaly
269.0777°
Eccentric anomaly
269.07072°
Mean motion
3.77187 °/min
Orbital period
95.44 mins
BSTAR
0.000037519
Loading maneuver chart data...
Computing Atmospheric mass density...
Loading historical data...
Loading historical data...
Loading historical data...
Loading historical data...
Loading historical data...
Loading historical data...
Loading historical data...

Documentation

Showing up to 5 results
|